Time,TemperatureF,DewpointF,PressureIn,WindDirection,WindDirectionDegrees,WindSpeedMPH,WindSpeedGustMPH,Humidity,HourlyPrecipIn,Conditions,Clouds,dailyrainin,SoftwareType,DateUTC
2013-10-20 00:08:00,51.2,45.0,29.69,North,355,5.0,13.0,79,0.00,,,0.00,weatherlink.com 1.10,2013-10-20 04:08:00,
2013-10-20 00:23:00,51.7,44.0,29.69,SSE,150,3.0,12.0,76,0.00,,,0.00,weatherlink.com 1.10,2013-10-20 04:23:00,
2013-10-20 00:38:00,51.7,44.0,29.68,North,5,2.0,6.0,75,0.00,,,0.00,weatherlink.com 1.10,2013-10-20 04:38:00,
2013-10-20 00:53:00,51.7,44.0,29.68,NNE,30,1.0,9.0,75,0.00,,,0.00,weatherlink.com 1.10,2013-10-20 04:53:00,
2013-10-20 01:08:00,51.8,44.0,29.68,NW,312,2.0,11.0,75,0.00,,,0.00,weatherlink.com 1.10,2013-10-20 05:08:00,
2013-10-20 01:23:00,51.2,45.0,29.68,NNE,28,9.0,12.0,78,0.00,,,0.00,weatherlink.com 1.10,2013-10-20 05:23:00,
2013-10-20 01:38:00,50.4,43.0,29.69,North,9,3.0,9.0,77,0.00,,,0.00,weatherlink.com 1.10,2013-10-20 05:38:00,
2013-10-20 01:53:00,50.9,43.0,29.69,West,279,4.0,13.0,75,0.00,,,0.00,weatherlink.com 1.10,2013-10-20 05:53:00,
2013-10-20 02:08:00,50.6,43.0,29.70,SSE,153,3.0,12.0,76,0.00,,,0.00,weatherlink.com 1.10,2013-10-20 06:08:00,
2013-10-20 02:23:00,50.0,41.0,29.70,NW,323,8.0,16.0,71,0.00,,,0.00,weatherlink.com 1.10,2013-10-20 06:23:00,
2013-10-20 02:38:00,49.3,40.0,29.70,NNW,339,4.0,13.0,70,0.00,,,0.00,weatherlink.com 1.10,2013-10-20 06:38:00,
2013-10-20 02:53:00,48.8,40.0,29.71,NNE,28,5.0,14.0,72,0.00,,,0.00,weatherlink.com 1.10,2013-10-20 06:53:00,
2013-10-20 03:08:00,48.5,41.0,29.71,NNW,346,5.0,11.0,74,0.00,,,0.00,weatherlink.com 1.10,2013-10-20 07:08:00,
2013-10-20 03:24:00,47.6,40.0,29.72,NW,309,2.0,13.0,74,0.00,,,0.00,weatherlink.com 1.10,2013-10-20 07:24:00,
2013-10-20 03:39:00,46.9,38.0,29.72,North,11,5.0,12.0,72,0.00,,,0.00,weatherlink.com 1.10,2013-10-20 07:39:00,
2013-10-20 03:54:00,45.9,37.0,29.72,NNW,335,4.0,12.0,70,0.00,,,0.00,weatherlink.com 1.10,2013-10-20 07:54:00,
2013-10-20 04:09:00,45.3,36.0,29.73,NW,326,10.0,13.0,69,0.00,,,0.00,weatherlink.com 1.10,2013-10-20 08:09:00,
2013-10-20 04:24:00,44.9,35.0,29.73,North,9,2.0,12.0,69,0.00,,,0.00,weatherlink.com 1.10,2013-10-20 08:24:00,
2013-10-20 04:39:00,44.4,35.0,29.73,North,5,3.0,10.0,70,0.00,,,0.00,weatherlink.com 1.10,2013-10-20 08:39:00,
2013-10-20 04:54:00,44.3,35.0,29.75,WNW,292,7.0,17.0,70,0.00,,,0.00,weatherlink.com 1.10,2013-10-20 08:54:00,
2013-10-20 05:09:00,44.0,35.0,29.75,NNW,340,3.0,14.0,70,0.00,,,0.00,weatherlink.com 1.10,2013-10-20 09:09:00,
2013-10-20 05:24:00,43.8,35.0,29.76,WNW,289,5.0,13.0,70,0.00,,,0.00,weatherlink.com 1.10,2013-10-20 09:24:00,
2013-10-20 05:39:00,43.4,34.0,29.77,NW,309,4.0,7.0,70,0.00,,,0.00,weatherlink.com 1.10,2013-10-20 09:39:00,
2013-10-20 05:54:00,43.2,34.0,29.77,NNE,32,5.0,13.0,69,0.00,,,0.00,weatherlink.com 1.10,2013-10-20 09:54:00,
2013-10-20 06:09:00,43.1,34.0,29.77,NNE,28,3.0,10.0,69,0.00,,,0.00,weatherlink.com 1.10,2013-10-20 10:09:00,
2013-10-20 06:24:00,42.7,33.0,29.77,ENE,65,3.0,11.0,69,0.00,,,0.00,weatherlink.com 1.10,2013-10-20 10:24:00,
2013-10-20 06:39:00,41.8,33.0,29.77,NNE,27,4.0,9.0,72,0.00,,,0.00,weatherlink.com 1.10,2013-10-20 10:39:00,
2013-10-20 06:54:00,41.5,33.0,29.78,NE,52,2.0,5.0,73,0.00,,,0.00,weatherlink.com 1.10,2013-10-20 10:54:00,
2013-10-20 07:09:00,41.5,33.0,29.79,East,91,2.0,6.0,73,0.00,,,0.00,weatherlink.com 1.10,2013-10-20 11:09:00,
2013-10-20 07:24:00,41.4,34.0,29.79,ENE,69,3.0,7.0,74,0.00,,,0.00,weatherlink.com 1.10,2013-10-20 11:24:00,
2013-10-20 07:39:00,41.9,33.0,29.80,NNE,21,5.0,6.0,71,0.00,,,0.00,weatherlink.com 1.10,2013-10-20 11:39:00,
2013-10-20 07:54:00,42.9,33.0,29.81,NE,38,0.0,14.0,68,0.00,,,0.00,weatherlink.com 1.10,2013-10-20 11:54:00,
2013-10-20 08:09:00,43.8,33.0,29.82,NNW,327,4.0,17.0,66,0.00,,,0.00,weatherlink.com 1.10,2013-10-20 12:09:00,
2013-10-20 08:24:00,44.3,33.0,29.82,North,349,5.0,19.0,65,0.00,,,0.00,weatherlink.com 1.10,2013-10-20 12:24:00,
2013-10-20 08:40:00,44.6,33.0,29.83,North,5,5.0,12.0,65,0.00,,,0.00,weatherlink.com 1.10,2013-10-20 12:40:00,
2013-10-20 08:55:00,45.1,33.0,29.83,North,5,11.0,16.0,62,0.00,,,0.00,weatherlink.com 1.10,2013-10-20 12:55:00,
2013-10-20 09:10:00,45.8,33.0,29.83,NNE,19,5.0,11.0,62,0.00,,,0.00,weatherlink.com 1.10,2013-10-20 13:10:00,
2013-10-20 09:25:00,46.2,33.0,29.84,NNW,346,5.0,14.0,60,0.00,,,0.00,weatherlink.com 1.10,2013-10-20 13:25:00,
2013-10-20 09:40:00,46.2,33.0,29.84,North,349,3.0,16.0,61,0.00,,,0.00,weatherlink.com 1.10,2013-10-20 13:40:00,
2013-10-20 09:55:00,46.8,34.0,29.85,North,5,4.0,10.0,61,0.00,,,0.00,weatherlink.com 1.10,2013-10-20 13:55:00,
2013-10-20 10:10:00,47.4,34.0,29.85,NNW,328,7.0,12.0,59,0.00,,,0.00,weatherlink.com 1.10,2013-10-20 14:10:00,
2013-10-20 10:25:00,47.6,33.0,29.86,NW,309,4.0,16.0,58,0.00,,,0.00,weatherlink.com 1.10,2013-10-20 14:25:00,
2013-10-20 10:40:00,48.4,34.0,29.86,North,349,5.0,13.0,57,0.00,,,0.00,weatherlink.com 1.10,2013-10-20 14:40:00,
2013-10-20 10:55:00,49.1,34.0,29.86,North,351,4.0,15.0,56,0.00,,,0.00,weatherlink.com 1.10,2013-10-20 14:55:00,
2013-10-20 11:10:00,48.8,33.0,29.86,West,273,4.0,17.0,55,0.00,,,0.00,weatherlink.com 1.10,2013-10-20 15:10:00,
2013-10-20 11:25:00,49.9,33.0,29.87,SSE,158,3.0,10.0,52,0.00,,,0.00,weatherlink.com 1.10,2013-10-20 15:25:00,
2013-10-20 11:40:00,50.3,32.0,29.87,WNW,289,3.0,13.0,50,0.00,,,0.00,weatherlink.com 1.10,2013-10-20 15:40:00,
2013-10-20 11:55:00,50.9,31.0,29.87,South,185,4.0,16.0,47,0.00,,,0.00,weatherlink.com 1.10,2013-10-20 15:55:00,
2013-10-20 12:10:00,51.8,31.0,29.87,NNW,341,6.0,15.0,46,0.00,,,0.00,weatherlink.com 1.10,2013-10-20 16:10:00,
2013-10-20 12:25:00,52.4,32.0,29.87,West,263,10.0,13.0,46,0.00,,,0.00,weatherlink.com 1.10,2013-10-20 16:25:00,
2013-10-20 12:40:00,52.1,32.0,29.88,NE,46,5.0,17.0,46,0.00,,,0.00,weatherlink.com 1.10,2013-10-20 16:40:00,
2013-10-20 12:55:00,52.3,32.0,29.88,NW,319,12.0,16.0,46,0.00,,,0.00,weatherlink.com 1.10,2013-10-20 16:55:00,
2013-10-20 13:10:00,52.0,33.0,29.88,NNW,340,11.0,18.0,48,0.00,,,0.00,weatherlink.com 1.10,2013-10-20 17:10:00,
2013-10-20 13:25:00,53.1,34.0,29.88,SW,214,3.0,13.0,49,0.00,,,0.00,weatherlink.com 1.10,2013-10-20 17:25:00,
2013-10-20 13:40:00,53.3,33.0,29.88,NW,317,6.0,16.0,46,0.00,,,0.00,weatherlink.com 1.10,2013-10-20 17:40:00,
2013-10-20 13:55:00,52.8,33.0,29.88,West,259,4.0,12.0,48,0.00,,,0.00,weatherlink.com 1.10,2013-10-20 17:55:00,
2013-10-20 14:10:00,52.6,34.0,29.87,WNW,302,7.0,12.0,49,0.00,,,0.00,weatherlink.com 1.10,2013-10-20 18:10:00,
2013-10-20 14:25:00,52.8,33.0,29.87,NNW,334,5.0,16.0,48,0.00,,,0.00,weatherlink.com 1.10,2013-10-20 18:25:00,
2013-10-20 14:40:00,52.7,34.0,29.88,South,180,2.0,11.0,50,0.00,,,0.00,weatherlink.com 1.10,2013-10-20 18:40:00,
2013-10-20 14:55:00,53.9,34.0,29.87,NNE,28,5.0,11.0,47,0.00,,,0.00,weatherlink.com 1.10,2013-10-20 18:55:00,
2013-10-20 15:10:00,54.2,33.0,29.88,NNE,15,9.0,17.0,45,0.00,,,0.00,weatherlink.com 1.10,2013-10-20 19:10:00,
2013-10-20 15:25:00,53.5,32.0,29.88,WNW,292,6.0,12.0,44,0.00,,,0.00,weatherlink.com 1.10,2013-10-20 19:25:00,
2013-10-20 15:40:00,54.4,34.0,29.88,NNE,28,2.0,10.0,46,0.00,,,0.00,weatherlink.com 1.10,2013-10-20 19:40:00,
2013-10-20 15:55:00,55.2,33.0,29.88,SW,236,4.0,14.0,44,0.00,,,0.00,weatherlink.com 1.10,2013-10-20 19:55:00,
2013-10-20 16:10:00,54.7,32.0,29.89,NW,325,8.0,11.0,43,0.00,,,0.00,weatherlink.com 1.10,2013-10-20 20:10:00,
2013-10-20 16:25:00,54.4,32.0,29.89,NNW,329,10.0,14.0,43,0.00,,,0.00,weatherlink.com 1.10,2013-10-20 20:25:00,
2013-10-20 16:40:00,53.1,32.0,29.90,NE,40,5.0,12.0,45,0.00,,,0.00,weatherlink.com 1.10,2013-10-20 20:40:00,
2013-10-20 16:55:00,53.1,32.0,29.91,NW,304,7.0,13.0,45,0.00,,,0.00,weatherlink.com 1.10,2013-10-20 20:55:00,
2013-10-20 17:10:00,52.1,31.0,29.91,NW,319,5.0,14.0,45,0.00,,,0.00,weatherlink.com 1.10,2013-10-20 21:10:00,
2013-10-20 17:25:00,51.6,32.0,29.91,NW,304,2.0,11.0,47,0.00,,,0.00,weatherlink.com 1.10,2013-10-20 21:25:00,
2013-10-20 17:40:00,51.0,32.0,29.92,North,351,4.0,12.0,49,0.00,,,0.00,weatherlink.com 1.10,2013-10-20 21:40:00,
2013-10-20 17:56:00,50.4,32.0,29.93,NNW,333,3.0,11.0,50,0.00,,,0.00,weatherlink.com 1.10,2013-10-20 21:56:00,
2013-10-20 18:11:00,49.7,33.0,29.93,NW,319,0.0,5.0,52,0.00,,,0.00,weatherlink.com 1.10,2013-10-20 22:11:00,
2013-10-20 18:26:00,48.9,33.0,29.94,NW,325,1.0,3.0,54,0.00,,,0.00,weatherlink.com 1.10,2013-10-20 22:26:00,
2013-10-20 18:41:00,47.5,33.0,29.95,NNW,328,1.0,2.0,58,0.00,,,0.00,weatherlink.com 1.10,2013-10-20 22:41:00,
2013-10-20 18:56:00,46.6,34.0,29.95,NNE,22,0.0,3.0,62,0.00,,,0.00,weatherlink.com 1.10,2013-10-20 22:56:00,
2013-10-20 19:11:00,45.8,35.0,29.95,NNE,24,0.0,2.0,66,0.00,,,0.00,weatherlink.com 1.10,2013-10-20 23:11:00,
2013-10-20 19:26:00,45.5,35.0,29.96,NNE,28,0.0,2.0,67,0.00,,,0.00,weatherlink.com 1.10,2013-10-20 23:26:00,
2013-10-20 19:41:00,45.0,36.0,29.96,NNE,28,0.0,0.0,70,0.00,,,0.00,weatherlink.com 1.10,2013-10-20 23:41:00,
2013-10-20 19:56:00,43.7,36.0,29.96,NNE,28,0.0,2.0,73,0.00,,,0.00,weatherlink.com 1.10,2013-10-20 23:56:00,
2013-10-20 20:11:00,42.8,35.0,29.97,ENE,67,2.0,2.0,75,0.00,,,0.00,weatherlink.com 1.10,2013-10-21 00:11:00,
2013-10-20 20:26:00,42.0,35.0,29.97,East,79,2.0,2.0,77,0.00,,,0.00,weatherlink.com 1.10,2013-10-21 00:26:00,
2013-10-20 20:41:00,41.6,35.0,29.97,East,79,0.0,3.0,78,0.00,,,0.00,weatherlink.com 1.10,2013-10-21 00:41:00,
2013-10-20 20:56:00,41.0,35.0,29.98,East,79,1.0,2.0,79,0.00,,,0.00,weatherlink.com 1.10,2013-10-21 00:56:00,
2013-10-20 21:11:00,40.4,35.0,29.98,East,79,0.0,2.0,80,0.00,,,0.00,weatherlink.com 1.10,2013-10-21 01:11:00,
2013-10-20 21:26:00,39.8,35.0,29.99,East,79,2.0,2.0,82,0.00,,,0.00,weatherlink.com 1.10,2013-10-21 01:26:00,
2013-10-20 21:41:00,39.5,35.0,30.00,East,79,0.0,2.0,83,0.00,,,0.00,weatherlink.com 1.10,2013-10-21 01:41:00,
2013-10-20 21:56:00,39.5,35.0,30.00,East,79,0.0,2.0,84,0.00,,,0.00,weatherlink.com 1.10,2013-10-21 01:56:00,
2013-10-20 22:11:00,39.6,35.0,30.00,ESE,110,1.0,2.0,83,0.00,,,0.00,weatherlink.com 1.10,2013-10-21 02:11:00,
2013-10-20 22:26:00,39.7,35.0,30.00,ESE,110,0.0,2.0,83,0.00,,,0.00,weatherlink.com 1.10,2013-10-21 02:26:00,
2013-10-20 22:41:00,39.5,35.0,30.01,SW,234,1.0,3.0,83,0.00,,,0.00,weatherlink.com 1.10,2013-10-21 02:41:00,
2013-10-20 22:56:00,38.4,35.0,30.01,SSW,209,0.0,3.0,86,0.00,,,0.00,weatherlink.com 1.10,2013-10-21 02:56:00,
2013-10-20 23:11:00,38.9,35.0,30.01,ESE,109,1.0,3.0,86,0.00,,,0.00,weatherlink.com 1.10,2013-10-21 03:11:00,
2013-10-20 23:26:00,39.5,35.0,30.01,SE,135,0.0,2.0,85,0.00,,,0.00,weatherlink.com 1.10,2013-10-21 03:26:00,
2013-10-20 23:41:00,39.9,36.0,30.01,SE,135,0.0,2.0,84,0.00,,,0.00,weatherlink.com 1.10,2013-10-21 03:41:00,
2013-10-20 23:56:00,40.4,36.0,30.01,SE,130,0.0,1.0,84,0.00,,,0.00,weatherlink.com 1.10,2013-10-21 03:56:00,